Monte Terminillo, Italy

5:25 AM CEST on April 25, 2018 (GMT +0200)
Monte Terminillo

Weather History for LIRK - May, 2013

Change the Weather History Date:

Wednesday, May 8, 2013

  Actual Average Record
Temperature  
Mean Temperature 42 °F -  
Max Temperature 45 °F 49 °F 69 °F (2015)
Min Temperature 39 °F 40 °F 24 °F (2004)
Degree Days  
Heating Degree Days 23    
Moisture  
Dew Point 42 °F    
Average Humidity 98    
Maximum Humidity 100    
Minimum Humidity 87    
Precipitation  
Precipitation 0.00 in 0.10 in - ()
Sea Level Pressure  
Sea Level Pressure 30.06 in    
Wind  
Wind Speed 8 mph ()    
Max Wind Speed 14 mph    
Max Gust Speed -    
Visibility 1.0 miles    
Events Fog , Rain    
Averages and records for this station are not official NWS values.
T = Trace of Precipitation, MM = Missing Value Source: Averaged Metar Reports

Daily Weather History Graph

Daily Weather History Graph

Search for Another Location

Airport or City:

Astronomy

May. 08, 2013 Rise Set
Actual Time 5:54 AM CEST 8:15 PM CEST
Civil Twilight 5:22 AM CEST 8:47 PM CEST
Nautical Twilight 4:43 AM CEST 9:26 PM CEST
Astronomical Twilight 4:00 AM CEST 10:10 PM CEST
Moon 4:54 AM CEST (5/8) 6:56 PM CEST (5/8)
Length of Visible Light 15h 24m
Length of Day
14h 21m
Waning Crescent, 2% of the Moon is Illuminated
May 8
Waning Crescent
May 10
New
May 18
First Quarter
May 25
Full
May 31
Last Quarter

Hourly Weather History & Observations

Time (CEST) Temp. Windchill Dew Point Humidity Pressure Visibility Wind Dir Wind Speed Gust Speed Precip Events Conditions
12:55 AM 41.0 °F - 41.0 °F 100% 30.09 in 0.0 mi North - - N/A Fog Fog
1:55 AM 41.0 °F - 41.0 °F 100% 30.09 in 0.0 mi North - - N/A Fog Fog
2:00 AM 41 °F - 41 °F 100%  in 0 mi WSW 13.8 mph - -  
2:55 AM 41.0 °F - 41.0 °F 100% 30.06 in 0.0 mi North - - N/A Fog Fog
3:55 AM 41.0 °F - 39.2 °F 93% 30.06 in 0.0 mi North - - N/A Fog Fog
4:55 AM 41.0 °F - 39.2 °F 93% 30.04 in 0.0 mi North - - N/A Fog Fog
5:55 AM 39.2 °F - 39.2 °F 100% 30.04 in 0.0 mi North - - N/A Fog Fog
7:55 AM 39.2 °F - 39.2 °F 100% 30.04 in - North - - N/A   Partly Cloudy
8:00 AM 40 °F - 38 °F 92%  in 6 mi WSW 11.5 mph - -  
8:55 AM 41.0 °F - 39.2 °F 93% 30.04 in - North - - N/A   Partly Cloudy
9:55 AM 41.0 °F - 41.0 °F 100% 30.04 in - North - - N/A   Partly Cloudy
10:55 AM 42.8 °F - 41.0 °F 93% 30.04 in 0.0 mi North - - N/A Fog , Rain Light Rain
11:55 AM 42.8 °F - 42.8 °F 100% 30.06 in 0.0 mi North - - N/A Fog , Rain Light Rain
1:55 PM 44.6 °F 40.7 °F 44.6 °F 100% 30.06 in 0.0 mi West 6.9 mph - N/A Fog Fog
2:00 PM 45 °F - 45 °F 100%  in 0 mi West 6.9 mph - -  
2:55 PM 44.6 °F - 44.6 °F 100% 30.06 in 0.0 mi North - - N/A Fog Fog
3:55 PM 44.6 °F - 44.6 °F 100% 30.06 in 0.0 mi North - - N/A Fog , Rain Light Rain
5:55 PM 44.6 °F - 44.6 °F 100% 30.06 in - North - - N/A   Scattered Clouds
6:55 PM 44.6 °F - 44.6 °F 100% 30.06 in - North - - N/A   Scattered Clouds
7:55 PM 44.6 °F - 44.6 °F 100% 30.06 in - North - - N/A   Scattered Clouds
8:00 PM 44 °F - 44 °F 100%  in 9 mi NE 6.9 mph - -  
8:55 PM 44.6 °F - 44.6 °F 100% 30.06 in - North - - N/A   Scattered Clouds
9:55 PM 42.8 °F - 42.8 °F 100% 30.06 in - North - - N/A   Scattered Clouds
10:55 PM 42.8 °F - 42.8 °F 100% 30.06 in - North - - N/A   Scattered Clouds
11:55 PM 42.8 °F - 39.2 °F 87% 30.09 in - North - - N/A   Scattered Clouds